Location: Balaclava NSW 2575, Australia
(34.4510°S, 150.4953°E)
Time: 01:09:09
(UTC+10:00)

Hubble Space Telescope - Visible Passes

Search period start: 16 May 2021 00:00
Search period end: 26 May 2021 00:00
Orbit: 535 x 539 km, 28.5° (Epoch: 14 May)

Date Brightness Start Highest point End Pass type
(mag) Time Alt. Az. Time Alt. Az. Time Alt. Az.
16 May 2.7 18:18:30 10° NNW 18:21:26 19° NNE 18:23:01 15° NE visible
17 May 2.5 18:07:12 10° NW 18:10:25 22° NNE 18:12:44 14° ENE visible
17 May 3.7 19:47:21 10° WNW 19:48:02 14° WNW 19:48:02 14° WNW visible
18 May 2.4 17:55:59 10° NW 17:59:25 25° NNE 18:02:25 12° ENE visible
18 May 3.3 19:36:22 10° WNW 19:37:44 19° NW 19:37:44 19° NW visible
19 May 2.3 17:44:50 10° NW 17:48:25 28° NNE 17:51:59 10° ENE visible
19 May 2.8 19:25:23 10° WNW 19:27:26 24° NW 19:27:26 24° NW visible
20 May 2.2 17:33:44 10° NW 17:37:25 30° N 17:41:07 10° ENE visible
20 May 2.4 19:14:26 10° WNW 19:17:08 29° NW 19:17:08 29° NW visible
21 May 2.1 17:22:41 10° WNW 17:26:26 33° N 17:30:12 10° ENE visible
21 May 2.1 19:03:29 10° WNW 19:06:52 33° NNW 19:06:52 33° NNW visible
22 May 2.1 18:52:34 10° WNW 18:56:16 31° N 18:56:39 30° N visible
23 May 2.3 18:41:41 10° WNW 18:45:16 28° N 18:46:29 24° NNE visible
24 May 2.6 18:30:49 10° WNW 18:34:17 25° NNW 18:36:25 17° NNE visible
25 May 2.8 18:20:00 10° WNW 18:23:17 22° NNW 18:26:27 10° NE visible
